• In Belarus
  • List of Countries
  • For 7 days
  • Water Temperature
  • Satellite Maps
  • Weather Map
  • Weather Widgets
  • user-avatar
    Login

    Hourly Weather Tsumeb

    Today, 25 March, Monday

    Time Temperature Precipitation Wind Pressure Humidity
    00:00 +25°C° 0 mm 3 mps 654 mmHg 47%
    01:00 +25°C° 0 mm 3 mps 654 mmHg 49%
    02:00 +24°C° 0 mm 3 mps 654 mmHg 50%
    03:00 +24°C° 0 mm 3 mps 654 mmHg 51%
    04:00 +22°C° 0 mm 3 mps 653 mmHg 52%
    05:00 +24°C° 0 mm 3 mps 654 mmHg 49%
    06:00 +25°C° 0 mm 3 mps 654 mmHg 47%
    07:00 +27°C° 0 mm 2 mps 656 mmHg 44%
    08:00 +29°C° 0 mm 3 mps 656 mmHg 38%
    09:00 +31°C° 0 mm 3 mps 656 mmHg 32%
    10:00 +34°C° 0 mm 4 mps 657 mmHg 27%
    11:00 +34°C° 0 mm 3 mps 656 mmHg 26%
    12:00 +34°C° 0 mm 3 mps 655 mmHg 24%
    13:00 +35°C° 0 mm 3 mps 655 mmHg 23%
    14:00 +35°C° 0 mm 2 mps 655 mmHg 24%
    15:00 +35°C° 0 mm 2 mps 655 mmHg 24%
    16:00 +34°C° 0 mm 2 mps 654 mmHg 25%
    17:00 +32°C° 0 mm 1 mps 654 mmHg 27%
    18:00 +31°C° 0 mm 1 mps 654 mmHg 29%
    19:00 +29°C° 0 mm 1 mps 653 mmHg 31%
    20:00 +28°C° 0 mm 1 mps 654 mmHg 32%
    21:00 +27°C° 0 mm 1 mps 654 mmHg 33%
    22:00 +26°C° 0 mm 1 mps 654 mmHg 34%
    23:00 +26°C° 0 mm 2 mps 654 mmHg 36%

    Tomorrow, 26 March, Tuesday

    Time Temperature Precipitation Wind Pressure Humidity
    00:00 +26°C° 0 mm 3 mps 654 mmHg 38%
    01:00 +25°C° 0 mm 4 mps 654 mmHg 40%
    02:00 +25°C° 0 mm 3 mps 654 mmHg 42%
    03:00 +25°C° 0 mm 3 mps 654 mmHg 45%
    04:00 +25°C° 0 mm 2 mps 654 mmHg 47%
    05:00 +25°C° 0 mm 2 mps 654 mmHg 46%
    06:00 +26°C° 0 mm 2 mps 655 mmHg 44%
    07:00 +26°C° 0 mm 2 mps 655 mmHg 43%
    08:00 +28°C° 0 mm 2 mps 656 mmHg 39%
    09:00 +30°C° 0 mm 2 mps 656 mmHg 34%
    10:00 +32°C° 0 mm 2 mps 657 mmHg 30%
    11:00 +34°C° 0 mm 3 mps 657 mmHg 27%
    12:00 +35°C° 0 mm 4 mps 656 mmHg 24%
    13:00 +36°C° 0 mm 4 mps 656 mmHg 20%
    14:00 +36°C° 0 mm 4 mps 656 mmHg 21%
    15:00 +36°C° 0 mm 4 mps 655 mmHg 21%
    16:00 +35°C° 0 mm 3 mps 655 mmHg 21%
    17:00 +33°C° 0 mm 3 mps 655 mmHg 25%
    18:00 +31°C° 0 mm 2 mps 655 mmHg 29%
    19:00 +29°C° 0 mm 1 mps 655 mmHg 32%
    20:00 +28°C° 0 mm 1 mps 655 mmHg 35%
    21:00 +27°C° 0 mm 2 mps 655 mmHg 38%
    22:00 +26°C° 0 mm 2 mps 655 mmHg 41%
    23:00 +26°C° 0 mm 2 mps 655 mmHg 41%

    Day after tomorrow, 27 March, Wednesday

    Time Temperature Precipitation Wind Pressure Humidity
    00:00 +26°C° 0 mm 3 mps 655 mmHg 41%
    01:00 +26°C° 0 mm 3 mps 655 mmHg 41%
    02:00 +25°C° 0 mm 3 mps 655 mmHg 43%
    03:00 +25°C° 0 mm 3 mps 655 mmHg 45%
    04:00 +24°C° 0 mm 3 mps 655 mmHg 46%
    05:00 +24°C° 0 mm 3 mps 655 mmHg 47%
    06:00 +25°C° 0 mm 3 mps 655 mmHg 48%
    07:00 +25°C° 0 mm 3 mps 656 mmHg 49%
    08:00 +27°C° 0 mm 4 mps 656 mmHg 42%
    09:00 +29°C° 0 mm 4 mps 657 mmHg 35%
    10:00 +33°C° 0 mm 5 mps 658 mmHg 28%
    11:00 +34°C° 0 mm 5 mps 658 mmHg 25%
    12:00 +36°C° 0 mm 5 mps 657 mmHg 22%
    13:00 +37°C° 0 mm 5 mps 657 mmHg 19%
    14:00 +36°C° 0 mm 4 mps 656 mmHg 20%
    15:00 +36°C° 0 mm 4 mps 656 mmHg 21%
    16:00 +35°C° 0 mm 3 mps 655 mmHg 22%
    17:00 +33°C° 0 mm 3 mps 655 mmHg 24%
    18:00 +30°C° 0 mm 3 mps 655 mmHg 27%
    19:00 +28°C° 0 mm 2 mps 655 mmHg 29%
    20:00 +27°C° 0 mm 3 mps 655 mmHg 30%
    21:00 +27°C° 0 mm 3 mps 656 mmHg 30%
    22:00 +27°C° 0 mm 3 mps 656 mmHg 31%
    23:00 +26°C° 0.1 mm 2 mps 656 mmHg 35%

    28 March, Thursday

    Time Temperature Precipitation Wind Pressure Humidity
    00:00 +26°C° 0.1 mm 2 mps 656 mmHg 39%
    01:00 +26°C° 0.1 mm 1 mps 656 mmHg 43%
    02:00 +25°C° 0.4 mm 1 mps 656 mmHg 47%
    03:00 +24°C° 0.4 mm 2 mps 655 mmHg 52%
    04:00 +22°C° 0.4 mm 3 mps 655 mmHg 56%
    05:00 +22°C° 0.1 mm 3 mps 656 mmHg 54%
    06:00 +24°C° 0.1 mm 3 mps 657 mmHg 53%
    07:00 +25°C° 0.1 mm 3 mps 657 mmHg 51%
    08:00 +27°C° 0 mm 3 mps 658 mmHg 44%
    09:00 +30°C° 0 mm 4 mps 658 mmHg 37%
    10:00 +34°C° 0 mm 5 mps 659 mmHg 29%
    11:00 +34°C° 0 mm 4 mps 658 mmHg 27%
    12:00 +35°C° 0 mm 4 mps 658 mmHg 25%
    13:00 +36°C° 0 mm 4 mps 657 mmHg 23%
    14:00 +35°C° 0 mm 4 mps 656 mmHg 24%
    15:00 +35°C° 0 mm 4 mps 656 mmHg 25%
    16:00 +34°C° 0 mm 4 mps 655 mmHg 27%
    17:00 +31°C° 0.1 mm 3 mps 655 mmHg 30%
    18:00 +29°C° 0.1 mm 2 mps 655 mmHg 33%
    19:00 +28°C° 0.1 mm 2 mps 655 mmHg 37%
    20:00 +27°C° 0.3 mm 2 mps 655 mmHg 40%
    21:00 +26°C° 0.3 mm 2 mps 655 mmHg 44%
    22:00 +25°C° 0.3 mm 2 mps 655 mmHg 48%
    23:00 +25°C° 0.1 mm 2 mps 655 mmHg 49%

    29 March, Friday

    Time Temperature Precipitation Wind Pressure Humidity
    00:00 +24°C° 0.1 mm 2 mps 655 mmHg 50%
    01:00 +24°C° 0.1 mm 2 mps 654 mmHg 51%
    02:00 +23°C° 0 mm 2 mps 654 mmHg 51%
    03:00 +23°C° 0 mm 2 mps 654 mmHg 52%
    04:00 +23°C° 0 mm 1 mps 654 mmHg 52%
    05:00 +24°C° 0 mm 2 mps 654 mmHg 50%
    06:00 +25°C° 0 mm 2 mps 655 mmHg 47%
    07:00 +26°C° 0 mm 2 mps 656 mmHg 45%
    08:00 +29°C° 0 mm 3 mps 657 mmHg 38%
    09:00 +31°C° 0 mm 3 mps 657 mmHg 31%
    10:00 +35°C° 0 mm 4 mps 658 mmHg 24%
    11:00 +35°C° 0 mm 4 mps 657 mmHg 24%
    12:00 +35°C° 0 mm 4 mps 656 mmHg 24%
    13:00 +35°C° 0 mm 3 mps 655 mmHg 24%
    14:00 +35°C° 0 mm 3 mps 655 mmHg 24%
    15:00 +35°C° 0 mm 3 mps 655 mmHg 24%
    16:00 +34°C° 0 mm 3 mps 655 mmHg 25%
    17:00 +31°C° 0 mm 3 mps 654 mmHg 28%
    18:00 +29°C° 0 mm 2 mps 654 mmHg 31%
    19:00 +28°C° 0 mm 2 mps 654 mmHg 34%
    20:00 +27°C° 0 mm 2 mps 654 mmHg 35%
    21:00 +26°C° 0 mm 2 mps 654 mmHg 35%
    22:00 +26°C° 0 mm 2 mps 654 mmHg 36%
    23:00 +26°C° 0 mm 2 mps 654 mmHg 35%

    30 March, Saturday

    Time Temperature Precipitation Wind Pressure Humidity
    00:00 +26°C° 0 mm 2 mps 654 mmHg 34%
    01:00 +26°C° 0 mm 3 mps 654 mmHg 34%
    02:00 +26°C° 0 mm 3 mps 654 mmHg 34%
    03:00 +25°C° 0 mm 3 mps 654 mmHg 34%
    04:00 +25°C° 0 mm 3 mps 654 mmHg 35%
    05:00 +26°C° 0 mm 3 mps 654 mmHg 35%
    06:00 +26°C° 0 mm 3 mps 654 mmHg 36%
    07:00 +26°C° 0 mm 2 mps 655 mmHg 36%
    08:00 +29°C° 0 mm 3 mps 656 mmHg 30%
    09:00 +33°C° 0 mm 4 mps 656 mmHg 25%
    10:00 +36°C° 0 mm 4 mps 657 mmHg 19%
    11:00 +37°C° 0 mm 5 mps 657 mmHg 17%
    12:00 +39°C° 0 mm 5 mps 656 mmHg 16%
    13:00 +40°C° 0 mm 5 mps 655 mmHg 14%
    14:00 +38°C° 0 mm 4 mps 655 mmHg 15%
    15:00 +37°C° 0 mm 4 mps 655 mmHg 16%
    16:00 +36°C° 0 mm 4 mps 654 mmHg 17%
    17:00 +34°C° 0 mm 3 mps 654 mmHg 19%
    18:00 +31°C° 0 mm 3 mps 654 mmHg 21%
    19:00 +30°C° 0 mm 2 mps 654 mmHg 23%
    20:00 +29°C° 0 mm 2 mps 654 mmHg 24%
    21:00 +28°C° 0 mm 2 mps 654 mmHg 25%
    22:00 +28°C° 0 mm 2 mps 654 mmHg 27%
    23:00 +27°C° 0 mm 2 mps 654 mmHg 28%
    Show more